This is the latest recevied weather packets stored in our database for station/object IZ1UQG-N2. If no packets are shown the sender has not sent any weather packets the latest 10 day(s).
| Time | Temp. | Humidity | Pressure | Rain* | Wind** | Luminosity | Snow |
|---|---|---|---|---|---|---|---|
| 1787999266 | 26.67° C | 46% | 1012.1 hPa | 0 mm | - | 701 W/m² | - |
| 1787999205 | 26.67° C | 47% | 1012.1 hPa | 0 mm | - | 707 W/m² | - |
| 1787999146 | 26.67° C | 46% | 1012.2 hPa | 0 mm | - | 708 W/m² | - |
| 1787999085 | 26.67° C | 45% | 1012.2 hPa | 0 mm | - | 715 W/m² | - |
| 1787999024 | 26.67° C | 45% | 1012.2 hPa | 0 mm | - | 712 W/m² | - |
| 1787998966 | 26.67° C | 44% | 1012.1 hPa | 0 mm | - | 719 W/m² | - |
| 1787998906 | 26.67° C | 45% | 1012.2 hPa | 0 mm | - | 698 W/m² | - |
| 1787998846 | 26.67° C | 46% | 1012.1 hPa | 0 mm | - | 708 W/m² | - |
| 1787998784 | 26.67° C | 45% | 1012.3 hPa | 0 mm | - | 708 W/m² | - |
| 1787998725 | 26.67° C | 45% | 1012.1 hPa | 0 mm | - | 686 W/m² | - |
| 1787998665 | 26.67° C | 45% | 1012.2 hPa | 0 mm | - | 701 W/m² | - |
| 1787998605 | 26.67° C | 45% | 1012.2 hPa | 0 mm | - | 700 W/m² | - |
| 1787998545 | 26.67° C | 46% | 1012.2 hPa | 0 mm | - | 693 W/m² | - |
| 1787998484 | 26.67° C | 46% | 1012.2 hPa | 0 mm | - | 686 W/m² | - |
| 1787998426 | 26.67° C | 46% | 1012.2 hPa | 0 mm | - | 680 W/m² | - |
| 1787998365 | 26.67° C | 46% | 1012.3 hPa | 0 mm | - | 693 W/m² | - |
| 1787998304 | 26.67° C | 46% | 1012.2 hPa | 0 mm | - | 689 W/m² | - |
| 1787998246 | 26.67° C | 46% | 1012.3 hPa | 0 mm | - | 687 W/m² | - |
| 1787998185 | 26.67° C | 45% | 1012.3 hPa | 0 mm | - | 691 W/m² | - |
| 1787998125 | 26.67° C | 46% | 1012.4 hPa | 0 mm | - | 693 W/m² | - |
| 1787998064 | 26.67° C | 45% | 1012.4 hPa | 0 mm | - | 694 W/m² | - |
| 1787998004 | 26.11° C | 45% | 1012.4 hPa | 0 mm | - | 682 W/m² | - |
| 1787997944 | 26.11° C | 45% | 1012.3 hPa | 0 mm | - | 661 W/m² | - |
| 1787997885 | 26.11° C | 45% | 1012.4 hPa | 0 mm | - | 638 W/m² | - |
| 1787997825 | 26.11° C | 45% | 1012.3 hPa | 0 mm | - | 693 W/m² | - |
* Rain latest hour (hover to see other rain measurements)
** Current wind speed in m/s (hover to see current wind gust speed)